• In Deutschland
  • Länderverzeichnis
  • Für 7 Tage
  • Wassertemperatur
  • Satellitenkarten
  • Wetterkarte
  • Widgets
  • user-avatar
    Anmelden

    Stündliche Wetter La Massana

    Heute, 28 Juli, Freitag

    Zeit Temperatur Niederschläge Wind Luftdruck Luftfeuchtigkeit
    00:00 +12°C° 0 mm 1 m/S 613 mmHg 84%
    01:00 +11°C° 0 mm 1 m/S 613 mmHg 83%
    02:00 +11°C° 0 mm 1 m/S 613 mmHg 82%
    03:00 +11°C° 0 mm 1 m/S 613 mmHg 82%
    04:00 +12°C° 0 mm 1 m/S 613 mmHg 78%
    05:00 +12°C° 0 mm 1 m/S 614 mmHg 75%
    06:00 +13°C° 0 mm 1 m/S 614 mmHg 72%
    07:00 +15°C° 0 mm 1 m/S 615 mmHg 66%
    08:00 +17°C° 0 mm 2 m/S 616 mmHg 60%
    09:00 +19°C° 0 mm 2 m/S 617 mmHg 54%
    10:00 +20°C° 0 mm 3 m/S 617 mmHg 52%
    11:00 +21°C° 0 mm 3 m/S 618 mmHg 49%
    12:00 +22°C° 0 mm 3 m/S 618 mmHg 47%
    13:00 +22°C° 0,1 mm 3 m/S 618 mmHg 48%
    14:00 +22°C° 0,1 mm 3 m/S 618 mmHg 48%
    15:00 +22°C° 0,1 mm 3 m/S 617 mmHg 49%
    16:00 +21°C° 0,1 mm 3 m/S 617 mmHg 53%
    17:00 +20°C° 0,1 mm 2 m/S 617 mmHg 57%
    18:00 +19°C° 0,1 mm 2 m/S 616 mmHg 61%
    19:00 +18°C° 0,1 mm 1 m/S 616 mmHg 70%
    20:00 +15°C° 0,1 mm 1 m/S 615 mmHg 78%
    21:00 +13°C° 0,1 mm 1 m/S 615 mmHg 86%
    22:00 +13°C° 0 mm 1 m/S 615 mmHg 87%
    23:00 +13°C° 0 mm 1 m/S 615 mmHg 87%

    Morgen, 29 Juli, Samstag

    Zeit Temperatur Niederschläge Wind Luftdruck Luftfeuchtigkeit
    00:00 +12°C° 0 mm 1 m/S 614 mmHg 88%
    01:00 +12°C° 0 mm 1 m/S 614 mmHg 87%
    02:00 +12°C° 0 mm 1 m/S 614 mmHg 86%
    03:00 +12°C° 0 mm 1 m/S 614 mmHg 86%
    04:00 +12°C° 0 mm 1 m/S 614 mmHg 81%
    05:00 +13°C° 0 mm 1 m/S 614 mmHg 77%
    06:00 +14°C° 0 mm 1 m/S 615 mmHg 73%
    07:00 +16°C° 0 mm 1 m/S 616 mmHg 64%
    08:00 +19°C° 0 mm 2 m/S 617 mmHg 55%
    09:00 +21°C° 0 mm 2 m/S 618 mmHg 46%
    10:00 +24°C° 0 mm 3 m/S 618 mmHg 41%
    11:00 +25°C° 0 mm 3 m/S 618 mmHg 37%
    12:00 +26°C° 0 mm 4 m/S 618 mmHg 33%
    13:00 +26°C° 0 mm 4 m/S 618 mmHg 33%
    14:00 +26°C° 0 mm 4 m/S 618 mmHg 33%
    15:00 +26°C° 0 mm 4 m/S 618 mmHg 34%
    16:00 +25°C° 0 mm 4 m/S 617 mmHg 39%
    17:00 +24°C° 0 mm 3 m/S 617 mmHg 44%
    18:00 +21°C° 0 mm 3 m/S 616 mmHg 49%
    19:00 +19°C° 0 mm 2 m/S 615 mmHg 57%
    20:00 +17°C° 0 mm 2 m/S 615 mmHg 64%
    21:00 +14°C° 0 mm 1 m/S 614 mmHg 71%
    22:00 +14°C° 0 mm 1 m/S 614 mmHg 70%
    23:00 +14°C° 0 mm 1 m/S 614 mmHg 70%

    übermorgen, 30 Juli, Sonntag

    Zeit Temperatur Niederschläge Wind Luftdruck Luftfeuchtigkeit
    00:00 +13°C° 0 mm 1 m/S 614 mmHg 69%
    01:00 +13°C° 0,1 mm 1 m/S 613 mmHg 68%
    02:00 +13°C° 0,1 mm 1 m/S 613 mmHg 66%
    03:00 +14°C° 0,1 mm 1 m/S 613 mmHg 65%
    04:00 +14°C° 0 mm 1 m/S 613 mmHg 65%
    05:00 +14°C° 0 mm 1 m/S 614 mmHg 66%
    06:00 +14°C° 0 mm 1 m/S 614 mmHg 66%
    07:00 +17°C° 0 mm 2 m/S 615 mmHg 60%
    08:00 +19°C° 0 mm 2 m/S 616 mmHg 53%
    09:00 +21°C° 0 mm 3 m/S 617 mmHg 47%
    10:00 +22°C° 0 mm 3 m/S 617 mmHg 44%
    11:00 +23°C° 0 mm 4 m/S 617 mmHg 41%
    12:00 +25°C° 0 mm 4 m/S 617 mmHg 39%
    13:00 +25°C° 0 mm 5 m/S 617 mmHg 39%
    14:00 +25°C° 0 mm 5 m/S 617 mmHg 39%
    15:00 +25°C° 0 mm 5 m/S 617 mmHg 39%
    16:00 +23°C° 0,2 mm 4 m/S 616 mmHg 45%
    17:00 +22°C° 0,2 mm 3 m/S 615 mmHg 51%
    18:00 +20°C° 0,2 mm 3 m/S 615 mmHg 57%
    19:00 +18°C° 0,1 mm 2 m/S 614 mmHg 64%
    20:00 +16°C° 0,1 mm 2 m/S 614 mmHg 71%
    21:00 +14°C° 0,1 mm 1 m/S 613 mmHg 78%
    22:00 +14°C° 0 mm 1 m/S 613 mmHg 77%
    23:00 +14°C° 0 mm 1 m/S 613 mmHg 76%

    31 Juli, Montag

    Zeit Temperatur Niederschläge Wind Luftdruck Luftfeuchtigkeit
    00:00 +13°C° 0 mm 1 m/S 613 mmHg 75%
    01:00 +13°C° 0 mm 1 m/S 612 mmHg 71%
    02:00 +13°C° 0 mm 2 m/S 612 mmHg 68%
    03:00 +12°C° 0 mm 2 m/S 612 mmHg 64%
    04:00 +13°C° 0 mm 2 m/S 612 mmHg 63%
    05:00 +14°C° 0 mm 2 m/S 612 mmHg 62%
    06:00 +14°C° 0 mm 2 m/S 612 mmHg 61%
    07:00 +17°C° 0 mm 2 m/S 613 mmHg 54%
    08:00 +19°C° 0 mm 3 m/S 615 mmHg 47%
    09:00 +22°C° 0 mm 4 m/S 616 mmHg 40%
    10:00 +23°C° 0 mm 4 m/S 616 mmHg 37%
    11:00 +25°C° 0 mm 5 m/S 616 mmHg 35%
    12:00 +26°C° 0 mm 5 m/S 616 mmHg 32%
    13:00 +26°C° 0 mm 5 m/S 616 mmHg 33%
    14:00 +26°C° 0 mm 5 m/S 616 mmHg 34%
    15:00 +26°C° 0 mm 5 m/S 615 mmHg 35%
    16:00 +23°C° 0,3 mm 4 m/S 615 mmHg 40%
    17:00 +22°C° 0,3 mm 4 m/S 614 mmHg 46%
    18:00 +21°C° 0,3 mm 3 m/S 614 mmHg 51%
    19:00 +19°C° 0,1 mm 2 m/S 613 mmHg 57%
    20:00 +16°C° 0,1 mm 2 m/S 613 mmHg 63%
    21:00 +14°C° 0,1 mm 1 m/S 612 mmHg 69%
    22:00 +14°C° 0 mm 1 m/S 612 mmHg 67%
    23:00 +13°C° 0 mm 1 m/S 612 mmHg 65%

    1 August, Dienstag

    Zeit Temperatur Niederschläge Wind Luftdruck Luftfeuchtigkeit
    00:00 +13°C° 0 mm 1 m/S 612 mmHg 62%
    01:00 +13°C° 0 mm 1 m/S 612 mmHg 60%
    02:00 +13°C° 0 mm 1 m/S 612 mmHg 59%
    03:00 +12°C° 0 mm 1 m/S 612 mmHg 57%
    04:00 +13°C° 0,2 mm 1 m/S 613 mmHg 59%
    05:00 +13°C° 0,2 mm 1 m/S 613 mmHg 61%
    06:00 +13°C° 0,2 mm 1 m/S 613 mmHg 63%
    07:00 +15°C° 0,3 mm 1 m/S 614 mmHg 59%
    08:00 +17°C° 0,3 mm 2 m/S 615 mmHg 56%
    09:00 +20°C° 0,3 mm 2 m/S 616 mmHg 53%
    10:00 +21°C° 0,1 mm 2 m/S 617 mmHg 50%
    11:00 +22°C° 0,1 mm 3 m/S 617 mmHg 47%
    12:00 +24°C° 0,1 mm 3 m/S 617 mmHg 44%
    13:00 +24°C° 0 mm 3 m/S 617 mmHg 44%
    14:00 +24°C° 0 mm 3 m/S 617 mmHg 44%
    15:00 +24°C° 0 mm 3 m/S 617 mmHg 43%
    16:00 +22°C° 0,1 mm 3 m/S 617 mmHg 49%
    17:00 +21°C° 0,1 mm 2 m/S 616 mmHg 54%
    18:00 +20°C° 0,1 mm 2 m/S 616 mmHg 59%
    19:00 +19°C° 0,1 mm 1 m/S 616 mmHg 66%
    20:00 +16°C° 0,1 mm 1 m/S 615 mmHg 73%
    21:00 +14°C° 0,1 mm 1 m/S 614 mmHg 80%
    22:00 +14°C° 0 mm 1 m/S 614 mmHg 80%
    23:00 +13°C° 0 mm 1 m/S 614 mmHg 80%

    2 August, Mittwoch

    Zeit Temperatur Niederschläge Wind Luftdruck Luftfeuchtigkeit
    00:00 +13°C° 0 mm 1 m/S 614 mmHg 80%
    01:00 +13°C° 0 mm 1 m/S 614 mmHg 78%
    02:00 +13°C° 0 mm 1 m/S 614 mmHg 76%
    03:00 +13°C° 0 mm 1 m/S 614 mmHg 75%
    04:00 +13°C° 0 mm 1 m/S 614 mmHg 72%
    05:00 +14°C° 0 mm 1 m/S 615 mmHg 69%
    06:00 +14°C° 0 mm 1 m/S 615 mmHg 66%
    07:00 +18°C° 0 mm 1 m/S 616 mmHg 58%
    08:00 +21°C° 0 mm 1 m/S 617 mmHg 49%
    09:00 +24°C° 0 mm 1 m/S 619 mmHg 40%
    10:00 +25°C° 0 mm 2 m/S 619 mmHg 37%
    11:00 +26°C° 0 mm 2 m/S 619 mmHg 34%
    12:00 +27°C° 0 mm 2 m/S 620 mmHg 32%
    13:00 +27°C° 0 mm 3 m/S 619 mmHg 33%
    14:00 +27°C° 0 mm 3 m/S 619 mmHg 35%
    15:00 +26°C° 0 mm 3 m/S 619 mmHg 36%
    16:00 +25°C° 0 mm 2 m/S 618 mmHg 41%
    17:00 +24°C° 0 mm 2 m/S 618 mmHg 45%
    18:00 +23°C° 0 mm 2 m/S 617 mmHg 50%
    19:00 +20°C° 0 mm 2 m/S 617 mmHg 57%
    20:00 +19°C° 0 mm 1 m/S 616 mmHg 63%
    21:00 +16°C° 0 mm 1 m/S 616 mmHg 70%
    22:00 +15°C° 0 mm 1 m/S 615 mmHg 70%
    23:00 +15°C° 0 mm 1 m/S 615 mmHg 71%
    Mehr zeigen